,,PA_Meas_PMT16A,,PR_Meas_QMR101_102,,RH_Meas_QMH101,,SR_Meas_QMS101,,TA_Meas_QMH101,,GenWind,,GenWind,
time,status,PA,status,PR,status,RH,status,SR,status,TA,status,DirAvg,status,SpdAvg,
2014-12-13, 00:00:04,VALID,918.333,VALID,0,VALID,95.4375,VALID,0,VALID,20.5804,VALID,132,VALID,1.69062,
2014-12-13, 00:01:04,VALID,918.355,VALID,0,VALID,95.4299,VALID,0,VALID,20.5804,VALID,141,VALID,1.16914,
2014-12-13, 00:02:04,VALID,918.33,VALID,0,VALID,95.4604,VALID,0,VALID,20.5399,VALID,157,VALID,1.13789,
2014-12-13, 00:03:04,VALID,918.361,VALID,0,VALID,95.5214,VALID,0,VALID,20.5414,VALID,117,VALID,1.05664,
2014-12-13, 00:04:04,VALID,918.385,VALID,0,VALID,95.5443,VALID,0,VALID,20.5414,VALID,132,VALID,1.59336,
2014-12-13, 00:05:04,VALID,918.363,VALID,0,VALID,95.6053,VALID,0,VALID,20.5219,VALID,138,VALID,1.46328,
2014-12-13, 00:06:04,VALID,918.395,VALID,0,VALID,95.6434,VALID,0,VALID,20.5414,VALID,148,VALID,1.77773,
2014-12-13, 00:07:04,VALID,918.408,VALID,0,VALID,95.6281,VALID,0,VALID,20.5609,VALID,138,VALID,2.04258,
2014-12-13, 00:08:04,VALID,918.431,VALID,0,VALID,95.4604,VALID,0,VALID,20.5999,VALID,151,VALID,1.14844,
2014-12-13, 00:09:04,VALID,918.413,VALID,0,VALID,95.3689,VALID,0,VALID,20.6194,VALID,158,VALID,1.31523,
2014-12-13, 00:10:04,VALID,918.433,VALID,0,VALID,95.2622,VALID,0,VALID,20.6194,VALID,150,VALID,1.42031,
2014-12-13, 00:11:04,VALID,918.462,VALID,0,VALID,95.2546,VALID,0,VALID,20.639,VALID,144,VALID,1.21523,
2014-12-13, 00:12:04,VALID,918.455,VALID,0,VALID,95.2927,VALID,0,VALID,20.6194,VALID,152,VALID,1.21875,
2014-12-13, 00:13:04,VALID,918.471,VALID,0,VALID,95.3461,VALID,0,VALID,20.6194,VALID,155,VALID,0.992578,
2014-12-13, 00:14:04,VALID,918.45,VALID,0,VALID,95.4299,VALID,0,VALID,20.5999,VALID,178,VALID,0.387109,
2014-12-13, 00:15:04,VALID,918.46,VALID,0,VALID,95.5519,VALID,0,VALID,20.5804,VALID,173,VALID,0.592578,
2014-12-13, 00:16:04,VALID,918.483,VALID,0,VALID,95.6739,VALID,0.107441,VALID,20.5414,VALID,184,VALID,0.13125,
2014-12-13, 00:17:04,VALID,918.482,VALID,0,VALID,95.7806,VALID,0,VALID,20.5219,VALID,184,VALID,0.175391,
2014-12-13, 00:18:04,VALID,918.476,VALID,0,VALID,95.8721,VALID,0,VALID,20.5024,VALID,184,VALID,0.161328,
2014-12-13, 00:19:04,VALID,918.451,VALID,0,VALID,95.9864,VALID,0,VALID,20.4829,VALID,179,VALID,0.188281,
2014-12-13, 00:20:04,VALID,918.481,VALID,0,VALID,96.055,VALID,0,VALID,20.4423,VALID,161,VALID,0,
2014-12-13, 00:21:04,VALID,918.479,VALID,0,VALID,96.1313,VALID,0,VALID,20.4634,VALID,147,VALID,0,
2014-12-13, 00:22:04,VALID,918.481,VALID,0,VALID,96.1846,VALID,0,VALID,20.4634,VALID,154,VALID,0,
2014-12-13, 00:23:04,VALID,918.465,VALID,0,VALID,96.2228,VALID,0,VALID,20.4439,VALID,165,VALID,0.0195313,
2014-12-13, 00:24:04,VALID,918.454,VALID,0,VALID,96.2533,VALID,0,VALID,20.4439,VALID,167,VALID,0.000390625,
2014-12-13, 00:25:04,VALID,918.465,VALID,0,VALID,96.299,VALID,0,VALID,20.4439,VALID,152,VALID,0,
2014-12-13, 00:26:04,VALID,918.449,VALID,0,VALID,96.3066,VALID,0,VALID,20.4845,VALID,142,VALID,0.000390625,
2014-12-13, 00:27:04,VALID,918.458,VALID,0,VALID,96.3066,VALID,0,VALID,20.4634,VALID,126,VALID,0.242188,
2014-12-13, 00:28:04,VALID,918.456,VALID,0,VALID,96.299,VALID,0,VALID,20.4829,VALID,142,VALID,0.216797,
2014-12-13, 00:29:04,VALID,918.466,VALID,0,VALID,96.3295,VALID,0,VALID,20.4845,VALID,143,VALID,0.171094,
2014-12-13, 00:30:04,VALID,918.48,VALID,0,VALID,96.3295,VALID,0,VALID,20.5024,VALID,124,VALID,1.53633,
2014-12-13, 00:31:04,VALID,918.455,VALID,0,VALID,96.3142,VALID,0,VALID,20.4618,VALID,127,VALID,1.70859,
2014-12-13, 00:32:04,VALID,918.413,VALID,0,VALID,96.2914,VALID,0,VALID,20.5009,VALID,124,VALID,2.11289,
2014-12-13, 00:33:04,VALID,918.396,VALID,0,VALID,96.299,VALID,0,VALID,20.5219,VALID,156,VALID,0.837891,
2014-12-13, 00:34:04,VALID,918.383,VALID,0,VALID,96.2837,VALID,0,VALID,20.5009,VALID,117,VALID,1.81094,
2014-12-13, 00:35:04,VALID,918.375,VALID,0,VALID,96.2609,VALID,0,VALID,20.5414,VALID,119,VALID,0.944922,
2014-12-13, 00:36:04,VALID,918.359,VALID,0,VALID,96.2685,VALID,0,VALID,20.5414,VALID,130,VALID,1.97812,
2014-12-13, 00:37:04,VALID,918.334,VALID,0,VALID,96.2533,VALID,0,VALID,20.5219,VALID,106,VALID,1.26133,
2014-12-13, 00:38:04,VALID,918.326,VALID,0,VALID,96.2685,VALID,0,VALID,20.5024,VALID,121,VALID,1.58867,
2014-12-13, 00:39:04,VALID,918.303,VALID,0,VALID,96.3066,VALID,0,VALID,20.5024,VALID,128,VALID,1.53867,
2014-12-13, 00:40:04,VALID,918.32,VALID,0,VALID,96.3371,VALID,0,VALID,20.5024,VALID,124,VALID,1.71133,
2014-12-13, 00:41:04,VALID,918.273,VALID,0,VALID,96.3829,VALID,0,VALID,20.5219,VALID,133,VALID,1.3668,
2014-12-13, 00:42:04,VALID,918.238,VALID,0,VALID,96.3829,VALID,0,VALID,20.5219,VALID,128,VALID,1.78398,
2014-12-13, 00:43:04,VALID,918.226,VALID,0,VALID,96.36,VALID,0,VALID,20.5204,VALID,124,VALID,1.9082,
2014-12-13, 00:44:04,VALID,918.194,VALID,0,VALID,96.36,VALID,0,VALID,20.5414,VALID,121,VALID,2.02461,
2014-12-13, 00:45:04,VALID,918.175,VALID,0,VALID,96.3142,VALID,0,VALID,20.5414,VALID,120,VALID,1.63516,
2014-12-13, 00:46:04,VALID,918.179,VALID,0,VALID,96.2914,VALID,0,VALID,20.5414,VALID,123,VALID,1.23828,
2014-12-13, 00:47:04,VALID,918.174,VALID,0,VALID,96.2914,VALID,0,VALID,20.5219,VALID,116,VALID,1.1957,
2014-12-13, 00:48:04,VALID,918.171,VALID,0,VALID,96.3142,VALID,0,VALID,20.5024,VALID,128,VALID,1.51563,
2014-12-13, 00:49:04,VALID,918.181,VALID,0,VALID,96.3295,VALID,0,VALID,20.4813,VALID,119,VALID,1.61445,
2014-12-13, 00:50:04,VALID,918.16,VALID,0,VALID,96.3295,VALID,0,VALID,20.4813,VALID,128,VALID,1.48477,
2014-12-13, 00:51:04,VALID,918.16,VALID,0,VALID,96.3371,VALID,0,VALID,20.4829,VALID,122,VALID,1.64766,
2014-12-13, 00:52:04,VALID,918.139,VALID,0,VALID,96.3295,VALID,0,VALID,20.4813,VALID,117,VALID,1.15586,
2014-12-13, 00:53:04,VALID,918.124,VALID,0,VALID,96.3219,VALID,0,VALID,20.5024,VALID,123,VALID,1.38594,
2014-12-13, 00:54:04,VALID,918.101,VALID,0,VALID,96.3295,VALID,0.107441,VALID,20.4829,VALID,133,VALID,1.12148,
2014-12-13, 00:55:04,VALID,918.109,VALID,0,VALID,96.3295,VALID,0,VALID,20.4634,VALID,132,VALID,1.13164,
2014-12-13, 00:56:04,VALID,918.073,VALID,0,VALID,96.3371,VALID,0.107441,VALID,20.4618,VALID,142,VALID,1.51172,
2014-12-13, 00:57:04,VALID,918.064,VALID,0,VALID,96.3219,VALID,0,VALID,20.4618,VALID,126,VALID,1.1168,
2014-12-13, 00:58:04,VALID,918.042,VALID,0,VALID,96.2685,VALID,0,VALID,20.4618,VALID,123,VALID,0.980469,
2014-12-13, 00:59:04,VALID,918.04,VALID,0,VALID,96.2228,VALID,0,VALID,20.4813,VALID,142,VALID,1.1332,
2014-12-13, 01:00:04,VALID,918.034,VALID,0,VALID,96.2228,VALID,0,VALID,20.4618,VALID,137,VALID,1.43047,
2014-12-13, 01:01:04,VALID,918.027,VALID,0,VALID,96.1846,VALID,0,VALID,20.4634,VALID,134,VALID,1.2707,
2014-12-13, 01:02:04,VALID,918.045,VALID,0,VALID,96.1541,VALID,0,VALID,20.4829,VALID,135,VALID,1.42578,
2014-12-13, 01:03:04,VALID,918.039,VALID,0,VALID,96.055,VALID,0,VALID,20.5219,VALID,138,VALID,1.46563,
2014-12-13, 01:04:04,VALID,918.013,VALID,0,VALID,95.9941,VALID,0,VALID,20.5204,VALID,145,VALID,1.35742,
2014-12-13, 01:05:04,VALID,917.999,VALID,0,VALID,95.895,VALID,0,VALID,20.5414,VALID,143,VALID,1.63359,
2014-12-13, 01:06:04,VALID,917.977,VALID,0,VALID,95.7882,VALID,0,VALID,20.5399,VALID,146,VALID,1.21719,
2014-12-13, 01:07:04,VALID,917.973,VALID,0,VALID,95.6281,VALID,0.107441,VALID,20.5594,VALID,143,VALID,1.44336,
2014-12-13, 01:08:04,VALID,917.952,VALID,0,VALID,95.4375,VALID,0,VALID,20.6194,VALID,127,VALID,1.57227,
2014-12-13, 01:09:04,VALID,917.963,VALID,0,VALID,95.1936,VALID,0,VALID,20.639,VALID,129,VALID,2.11875,
2014-12-13, 01:10:04,VALID,917.922,VALID,0,VALID,94.7438,VALID,0,VALID,20.678,VALID,136,VALID,1.40039,
2014-12-13, 01:11:04,VALID,917.922,VALID,0,VALID,93.9662,VALID,0,VALID,20.717,VALID,151,VALID,0.99375,
2014-12-13, 01:12:04,VALID,917.857,VALID,0,VALID,93.3335,VALID,0,VALID,20.7365,VALID,140,VALID,1.32852,
2014-12-13, 01:13:04,VALID,917.856,VALID,0,VALID,92.838,VALID,0,VALID,20.8145,VALID,143,VALID,1.07969,
2014-12-13, 01:14:04,VALID,917.826,VALID,0,VALID,92.4568,VALID,0,VALID,20.7934,VALID,126,VALID,1.25039,
2014-12-13, 01:15:04,VALID,917.782,VALID,0,VALID,92.1976,VALID,0,VALID,20.834,VALID,123,VALID,1.8582,
2014-12-13, 01:16:04,VALID,917.8,VALID,0,VALID,92.1823,VALID,0,VALID,20.8145,VALID,135,VALID,1.36797,
2014-12-13, 01:17:04,VALID,917.767,VALID,0,VALID,92.2357,VALID,0,VALID,20.7739,VALID,133,VALID,1.15977,
2014-12-13, 01:18:04,VALID,917.736,VALID,0,VALID,92.2662,VALID,0,VALID,20.7755,VALID,151,VALID,1.12969,
2014-12-13, 01:19:04,VALID,917.739,VALID,0,VALID,92.3729,VALID,0,VALID,20.7544,VALID,142,VALID,0.849219,
2014-12-13, 01:20:04,VALID,917.694,VALID,0,VALID,92.5635,VALID,0,VALID,20.756,VALID,143,VALID,1.00625,
2014-12-13, 01:21:04,VALID,917.662,VALID,0,VALID,92.6474,VALID,0,VALID,20.7154,VALID,124,VALID,1.12461,
2014-12-13, 01:22:04,VALID,917.617,VALID,0,VALID,92.7312,VALID,0,VALID,20.717,VALID,121,VALID,0.91875,
2014-12-13, 01:23:04,VALID,917.599,VALID,0,VALID,92.8608,VALID,0,VALID,20.678,VALID,134,VALID,1.26953,
2014-12-13, 01:24:04,VALID,917.582,VALID,0,VALID,92.7998,VALID,0,VALID,20.6975,VALID,125,VALID,1.14219,
2014-12-13, 01:25:04,VALID,917.527,VALID,0,VALID,92.6779,VALID,0,VALID,20.6975,VALID,124,VALID,1.60195,
2014-12-13, 01:26:04,VALID,917.544,VALID,0,VALID,92.6397,VALID,0,VALID,20.6764,VALID,112,VALID,0.644531,
2014-12-13, 01:27:04,VALID,917.508,VALID,0,VALID,92.533,VALID,0,VALID,20.6975,VALID,117,VALID,1.67617,
2014-12-13, 01:28:04,VALID,917.498,VALID,0,VALID,92.3882,VALID,0,VALID,20.7154,VALID,107,VALID,1.31445,
2014-12-13, 01:29:04,VALID,917.508,VALID,0,VALID,92.3653,VALID,0,VALID,20.7365,VALID,124,VALID,1.72187,
2014-12-13, 01:30:04,VALID,917.452,VALID,0,VALID,92.4949,VALID,0,VALID,20.6959,VALID,120,VALID,1.13047,
2014-12-13, 01:31:04,VALID,917.469,VALID,0,VALID,92.8456,VALID,0,VALID,20.678,VALID,131,VALID,1.32813,
2014-12-13, 01:32:04,VALID,917.449,VALID,0,VALID,93.2268,VALID,0,VALID,20.639,VALID,136,VALID,1.18398,
2014-12-13, 01:33:04,VALID,917.417,VALID,0,VALID,93.8443,VALID,0,VALID,20.5804,VALID,125,VALID,1.02969,
2014-12-13, 01:34:04,VALID,917.417,VALID,0,VALID,94.6371,VALID,0,VALID,20.5219,VALID,125,VALID,1.11094,
2014-12-13, 01:35:04,VALID,917.387,VALID,0,VALID,95.0564,VALID,0,VALID,20.4829,VALID,135,VALID,1.14141,
2014-12-13, 01:36:04,VALID,917.411,VALID,0,VALID,95.2851,VALID,0,VALID,20.4439,VALID,140,VALID,0.930078,
2014-12-13, 01:37:04,VALID,917.393,VALID,0,VALID,95.4299,VALID,0,VALID,20.4228,VALID,149,VALID,1.14102,
2014-12-13, 01:38:04,VALID,917.385,VALID,0,VALID,95.5214,VALID,0,VALID,20.4049,VALID,151,VALID,0.723437,
2014-12-13, 01:39:04,VALID,917.358,VALID,0,VALID,95.6357,VALID,0,VALID,20.3854,VALID,151,VALID,0.958594,
2014-12-13, 01:40:04,VALID,917.347,VALID,0,VALID,95.7806,VALID,0,VALID,20.3464,VALID,150,VALID,0,
2014-12-13, 01:41:04,VALID,917.353,VALID,0,VALID,95.9254,VALID,0,VALID,20.3269,VALID,151,VALID,0,
2014-12-13, 01:42:04,VALID,917.294,VALID,0,VALID,96.0779,VALID,0,VALID,20.2684,VALID,163,VALID,0,
2014-12-13, 01:43:04,VALID,917.279,VALID,0,VALID,96.1846,VALID,0,VALID,20.2684,VALID,163,VALID,0,
2014-12-13, 01:44:04,VALID,917.266,VALID,0,VALID,96.3066,VALID,0,VALID,20.2098,VALID,163,VALID,0,
2014-12-13, 01:45:04,VALID,917.229,VALID,0,VALID,96.4133,VALID,0,VALID,20.1903,VALID,163,VALID,0,
2014-12-13, 01:46:04,VALID,917.229,VALID,0,VALID,96.4972,VALID,0,VALID,20.1708,VALID,163,VALID,0,
2014-12-13, 01:47:04,VALID,917.216,VALID,0,VALID,96.5811,VALID,0,VALID,20.1513,VALID,163,VALID,0,
2014-12-13, 01:48:04,VALID,917.213,VALID,0,VALID,96.6573,VALID,0,VALID,20.1318,VALID,162,VALID,0,
2014-12-13, 01:49:04,VALID,917.207,VALID,0,VALID,96.7183,VALID,0,VALID,20.0928,VALID,156,VALID,0,
2014-12-13, 01:50:04,VALID,917.163,VALID,0,VALID,96.7793,VALID,0,VALID,20.0733,VALID,130,VALID,0.404297,
2014-12-13, 01:51:04,VALID,917.155,VALID,0,VALID,96.825,VALID,0,VALID,20.0733,VALID,130,VALID,1.36836,
2014-12-13, 01:52:04,VALID,917.177,VALID,0,VALID,96.9012,VALID,0,VALID,20.1139,VALID,136,VALID,1.10938,
2014-12-13, 01:53:04,VALID,917.149,VALID,0,VALID,96.947,VALID,0,VALID,20.1318,VALID,125,VALID,1.6043,
2014-12-13, 01:54:04,VALID,917.123,VALID,0,VALID,96.9622,VALID,0,VALID,20.1708,VALID,123,VALID,1.54492,
2014-12-13, 01:55:04,VALID,917.127,VALID,0,VALID,96.9698,VALID,0,VALID,20.2098,VALID,130,VALID,1.65273,
2014-12-13, 01:56:04,VALID,917.127,VALID,0,VALID,96.9317,VALID,0,VALID,20.2293,VALID,109,VALID,1.38984,
2014-12-13, 07:03:04,VALID,917.507,VALID,0,VALID,89.6971,VALID,66.3986,VALID,20.3269,VALID,131,VALID,1.36797,
2014-12-13, 07:04:04,VALID,917.578,VALID,0,VALID,89.0644,VALID,66.5061,VALID,20.3854,VALID,134,VALID,0.896094,
2014-12-13, 07:05:04,VALID,917.601,VALID,0,VALID,89.133,VALID,54.4727,VALID,20.4439,VALID,155,VALID,0,
2014-12-13, 07:06:04,VALID,917.622,VALID,0,VALID,89.2931,VALID,48.1336,VALID,20.4829,VALID,150,VALID,0,
2014-12-13, 07:07:04,VALID,917.659,VALID,0,VALID,89.3007,VALID,46.9518,VALID,20.4813,VALID,125,VALID,0,
2014-12-13, 07:08:04,VALID,917.687,VALID,0,VALID,89.2854,VALID,48.6708,VALID,20.4634,VALID,117,VALID,0,
2014-12-13, 07:09:04,VALID,917.689,VALID,0,VALID,89.3769,VALID,60.5968,VALID,20.4244,VALID,129,VALID,0.00664063,
2014-12-13, 07:10:04,VALID,917.728,VALID,0,VALID,89.4837,VALID,53.2908,VALID,20.3643,VALID,113,VALID,0.874609,
2014-12-13, 07:11:04,VALID,917.715,VALID,0,VALID,89.5142,VALID,66.8284,VALID,20.3854,VALID,121,VALID,1.21094,
2014-12-13, 07:12:04,VALID,917.716,VALID,0,VALID,89.3236,VALID,62.4233,VALID,20.3854,VALID,128,VALID,1.27617,
2014-12-13, 07:13:04,VALID,917.738,VALID,0,VALID,89.1482,VALID,68.5475,VALID,20.4033,VALID,115,VALID,1.58008,
2014-12-13, 07:14:04,VALID,917.749,VALID,0,VALID,89.0034,VALID,71.0186,VALID,20.4228,VALID,88,VALID,1.42578,
2014-12-13, 07:15:04,VALID,917.753,VALID,0,VALID,88.6603,VALID,84.1264,VALID,20.4618,VALID,125,VALID,1.2832,
2014-12-13, 07:16:04,VALID,917.792,VALID,0,VALID,88.6984,VALID,74.3493,VALID,20.5009,VALID,112,VALID,1.05234,
2014-12-13, 07:17:04,VALID,917.801,VALID,0,VALID,88.6527,VALID,91.8622,VALID,20.5414,VALID,121,VALID,1.14609,
2014-12-13, 07:18:04,VALID,917.821,VALID,0,VALID,88.668,VALID,94.6557,VALID,20.5609,VALID,116,VALID,1.10547,
2014-12-13, 07:19:04,VALID,917.873,VALID,0,VALID,88.9576,VALID,83.1595,VALID,20.5789,VALID,107,VALID,0.675,
2014-12-13, 07:20:04,VALID,917.865,VALID,0,VALID,88.7671,VALID,97.0194,VALID,20.5999,VALID,115,VALID,1.2168,
2014-12-13, 07:21:04,VALID,917.875,VALID,0,VALID,88.5841,VALID,70.6963,VALID,20.5789,VALID,115,VALID,1.58867,
2014-12-13, 07:22:04,VALID,917.887,VALID,0,VALID,88.889,VALID,70.5888,VALID,20.5999,VALID,121,VALID,1.0875,
2014-12-13, 07:23:04,VALID,917.929,VALID,0,VALID,89.133,VALID,64.3572,VALID,20.5594,VALID,128,VALID,1.72734,
2014-12-13, 07:24:04,VALID,917.921,VALID,0,VALID,89.4684,VALID,64.6796,VALID,20.5204,VALID,126,VALID,1.59297,
2014-12-13, 07:25:04,VALID,917.917,VALID,0,VALID,89.7886,VALID,61.6712,VALID,20.4813,VALID,135,VALID,1.27969,
2014-12-13, 07:26:04,VALID,917.957,VALID,0,VALID,90.0021,VALID,61.0266,VALID,20.4618,VALID,150,VALID,0.852344,
2014-12-13, 07:27:04,VALID,917.96,VALID,0,VALID,89.7429,VALID,60.7043,VALID,20.4618,VALID,136,VALID,0.153906,
2014-12-13, 07:28:04,VALID,918.015,VALID,0,VALID,89.659,VALID,61.134,VALID,20.4813,VALID,127,VALID,1.38789,
2014-12-13, 07:29:04,VALID,918.023,VALID,0,VALID,90.1621,VALID,61.134,VALID,20.4829,VALID,119,VALID,1.03906,
2014-12-13, 07:30:04,VALID,918.012,VALID,0,VALID,90.2231,VALID,60.8117,VALID,20.4423,VALID,131,VALID,1.66523,
2014-12-13, 07:31:04,VALID,918.021,VALID,0,VALID,90.3832,VALID,60.2745,VALID,20.4033,VALID,118,VALID,1.60078,
2014-12-13, 07:32:04,VALID,917.999,VALID,0,VALID,90.4518,VALID,61.134,VALID,20.3643,VALID,116,VALID,1.85625,
2014-12-13, 07:33:04,VALID,917.994,VALID,0,VALID,90.5738,VALID,63.4977,VALID,20.3854,VALID,113,VALID,1.51289,
2014-12-13, 07:34:04,VALID,918.024,VALID,0,VALID,90.5662,VALID,74.027,VALID,20.3448,VALID,119,VALID,1.30859,
2014-12-13, 07:35:04,VALID,918.019,VALID,0,VALID,90.3299,VALID,106.582,VALID,20.3448,VALID,117,VALID,1.95352,
2014-12-13, 07:36:04,VALID,918.028,VALID,0,VALID,90.2994,VALID,93.6887,VALID,20.4033,VALID,121,VALID,1.8918,
2014-12-13, 07:37:04,VALID,918.055,VALID,0,VALID,89.5904,VALID,169.864,VALID,20.4423,VALID,118,VALID,2.08594,
2014-12-13, 07:38:04,VALID,918.037,VALID,0,VALID,89.4303,VALID,167.716,VALID,20.5804,VALID,118,VALID,1.81445,
2014-12-13, 07:39:04,VALID,918.061,VALID,0,VALID,88.9958,VALID,172.336,VALID,20.6975,VALID,119,VALID,1.5332,
2014-12-13, 07:40:04,VALID,918.06,VALID,0,VALID,88.3325,VALID,181.576,VALID,20.7528,VALID,118,VALID,1.82852,
2014-12-13, 07:41:04,VALID,918.07,VALID,0,VALID,86.9069,VALID,177.493,VALID,20.8714,VALID,154,VALID,1.40156,
2014-12-13, 07:42:04,VALID,918.079,VALID,0,VALID,87.2424,VALID,175.881,VALID,21.0275,VALID,127,VALID,1.61328,
2014-12-13, 07:43:04,VALID,918.055,VALID,0,VALID,86.8536,VALID,126.136,VALID,21.1071,VALID,128,VALID,1.83281,
2014-12-13, 07:44:04,VALID,918.062,VALID,0,VALID,86.8307,VALID,91.5399,VALID,21.0665,VALID,136,VALID,1.16562,
2014-12-13, 07:45:04,VALID,918.079,VALID,0,VALID,86.5868,VALID,85.6306,VALID,21.0275,VALID,135,VALID,1.58281,
2014-12-13, 07:46:04,VALID,918.11,VALID,0,VALID,86.3199,VALID,82.8371,VALID,21.008,VALID,135,VALID,2.71016,
2014-12-13, 07:47:04,VALID,918.144,VALID,0,VALID,87.6388,VALID,103.466,VALID,20.9495,VALID,126,VALID,1.27656,
2014-12-13, 07:48:04,VALID,918.151,VALID,0,VALID,87.1433,VALID,114.747,VALID,20.912,VALID,134,VALID,1.8168,
2014-12-13, 07:49:04,VALID,918.185,VALID,0,VALID,87.5321,VALID,81.2255,VALID,20.912,VALID,135,VALID,1.43242,
2014-12-13, 07:50:04,VALID,918.184,VALID,0,VALID,86.8841,VALID,92.3994,VALID,20.912,VALID,160,VALID,1.59102,
2014-12-13, 07:51:04,VALID,918.164,VALID,0,VALID,86.5105,VALID,114.855,VALID,20.912,VALID,168,VALID,0.694141,
2014-12-13, 07:52:04,VALID,918.177,VALID,0,VALID,86.198,VALID,96.5896,VALID,20.9316,VALID,133,VALID,1.58203,
2014-12-13, 07:53:04,VALID,918.165,VALID,0,VALID,86.0303,VALID,94.6557,VALID,20.9511,VALID,128,VALID,1.77852,
2014-12-13, 07:54:04,VALID,918.167,VALID,0,VALID,86.5868,VALID,97.1268,VALID,20.9316,VALID,120,VALID,1.61719,
2014-12-13, 07:55:04,VALID,918.218,VALID,0,VALID,86.5563,VALID,99.5979,VALID,20.9316,VALID,137,VALID,2.3043,
2014-12-13, 07:56:04,VALID,918.189,VALID,0,VALID,87.4863,VALID,103.788,VALID,20.9316,VALID,102,VALID,0.936719,
2014-12-13, 07:57:04,VALID,918.206,VALID,0,VALID,86.9603,VALID,113.673,VALID,20.891,VALID,126,VALID,2.04531,
2014-12-13, 07:58:04,VALID,918.197,VALID,0,VALID,86.8383,VALID,127.533,VALID,20.9316,VALID,139,VALID,2.00977,
2014-12-13, 07:59:04,VALID,918.224,VALID,0,VALID,87.0137,VALID,123.987,VALID,20.9511,VALID,117,VALID,1.43398,
2014-12-13, 08:00:04,VALID,918.244,VALID,0,VALID,86.48,VALID,126.136,VALID,20.9706,VALID,138,VALID,2.14336,
2014-12-13, 08:01:04,VALID,918.252,VALID,0,VALID,86.602,VALID,124.632,VALID,21.0096,VALID,123,VALID,0.690234,
2014-12-13, 08:02:04,VALID,918.235,VALID,0,VALID,86.7468,VALID,125.276,VALID,21.0486,VALID,102,VALID,1.68633,
2014-12-13, 08:03:04,VALID,918.232,VALID,0,VALID,86.5791,VALID,121.516,VALID,20.9885,VALID,104,VALID,1.71289,
2014-12-13, 08:04:04,VALID,918.256,VALID,0,VALID,87.2119,VALID,118.83,VALID,21.0096,VALID,135,VALID,0.826172,
2014-12-13, 08:05:04,VALID,918.26,VALID,0,VALID,87.4863,VALID,124.202,VALID,21.0275,VALID,113,VALID,0.851953,
2014-12-13, 08:06:04,VALID,918.253,VALID,0,VALID,86.3123,VALID,146.765,VALID,21.008,VALID,128,VALID,2.57539,
2014-12-13, 08:07:04,VALID,918.27,VALID,0,VALID,87.5168,VALID,151.599,VALID,21.0291,VALID,109,VALID,1.75117,
2014-12-13, 08:08:04,VALID,918.276,VALID,0,VALID,87.6388,VALID,151.922,VALID,21.008,VALID,120,VALID,1.10977,
2014-12-13, 08:09:04,VALID,918.284,VALID,0,VALID,86.7468,VALID,159.335,VALID,21.0665,VALID,121,VALID,1.87266,
2014-12-13, 08:10:04,VALID,918.293,VALID,0,VALID,86.3199,VALID,170.939,VALID,21.1266,VALID,125,VALID,2.26367,
2014-12-13, 08:11:04,VALID,918.328,VALID,0,VALID,86.9374,VALID,175.451,VALID,21.1657,VALID,129,VALID,0.80625,
2014-12-13, 08:12:04,VALID,918.315,VALID,0,VALID,87.1966,VALID,162.344,VALID,21.2031,VALID,122,VALID,1.44648,
2014-12-13, 08:13:04,VALID,918.364,VALID,0,VALID,86.2589,VALID,162.344,VALID,21.2047,VALID,120,VALID,2.69883,
2014-12-13, 08:14:04,VALID,918.348,VALID,0,VALID,86.0684,VALID,163.955,VALID,21.2616,VALID,130,VALID,1.00156,
2014-12-13, 08:15:04,VALID,918.347,VALID,0,VALID,86.4114,VALID,164.815,VALID,21.3201,VALID,143,VALID,1.62852,
2014-12-13, 08:16:04,VALID,918.392,VALID,0,VALID,85.7482,VALID,164.492,VALID,21.3803,VALID,120,VALID,1.24453,
2014-12-13, 08:17:04,VALID,918.413,VALID,0,VALID,85.7939,VALID,165.997,VALID,21.4388,VALID,133,VALID,1.17109,
2014-12-13, 08:18:04,VALID,918.433,VALID,0,VALID,85.2298,VALID,168.683,VALID,21.4193,VALID,149,VALID,0.93125,
2014-12-13, 08:19:04,VALID,918.455,VALID,0,VALID,86.0684,VALID,175.022,VALID,21.4778,VALID,129,VALID,0,
2014-12-13, 08:20:04,VALID,918.473,VALID,0,VALID,85.7482,VALID,184.584,VALID,21.4762,VALID,118,VALID,0.112891,
2014-12-13, 08:21:04,VALID,918.483,VALID,0,VALID,84.4979,VALID,195.758,VALID,21.5152,VALID,145,VALID,1.45469,
2014-12-13, 08:22:04,VALID,918.54,VALID,0,VALID,84.9172,VALID,207.147,VALID,21.5542,VALID,126,VALID,2.09023,
2014-12-13, 08:23:04,VALID,918.517,VALID,0,VALID,85.0926,VALID,215.742,VALID,21.5737,VALID,130,VALID,1.11406,
2014-12-13, 08:24:04,VALID,918.551,VALID,0,VALID,85.0468,VALID,220.684,VALID,21.6323,VALID,142,VALID,1.3875,
2014-12-13, 08:25:04,VALID,918.551,VALID,0,VALID,84.4217,VALID,224.122,VALID,21.7298,VALID,145,VALID,1.04844,
2014-12-13, 08:26:04,VALID,918.565,VALID,0,VALID,83.8728,VALID,222.94,VALID,21.7883,VALID,154,VALID,1.02813,
2014-12-13, 08:27:04,VALID,918.553,VALID,0,VALID,82.9733,VALID,228.42,VALID,21.8274,VALID,144,VALID,1.62227,
2014-12-13, 08:28:04,VALID,918.559,VALID,0,VALID,82.6302,VALID,239.057,VALID,21.8469,VALID,144,VALID,0.96875,
2014-12-13, 08:29:04,VALID,918.574,VALID,0,VALID,83.9186,VALID,238.09,VALID,21.9054,VALID,127,VALID,1.34063,
2014-12-13, 08:30:04,VALID,918.606,VALID,0,VALID,84.6657,VALID,323.935,VALID,21.964,VALID,97,VALID,0.944531,
2014-12-13, 08:31:04,VALID,918.617,VALID,0,VALID,83.2934,VALID,297.29,VALID,22.042,VALID,133,VALID,2.06094,
2014-12-13, 08:32:04,VALID,918.653,VALID,0,VALID,82.615,VALID,419.558,VALID,22.0794,VALID,117,VALID,2.36094,
2014-12-13, 08:33:04,VALID,918.686,VALID,0,VALID,83.667,VALID,273.33,VALID,22.1981,VALID,150,VALID,1.09141,
2014-12-13, 08:34:04,VALID,918.71,VALID,0,VALID,82.8513,VALID,262.371,VALID,22.333,VALID,86,VALID,0.575,
2014-12-13, 08:35:04,VALID,918.735,VALID,0,VALID,82.4472,VALID,283.322,VALID,22.4501,VALID,157,VALID,1.37969,
2014-12-13, 08:36:04,VALID,918.771,VALID,0,VALID,81.6315,VALID,245.503,VALID,22.5494,VALID,139,VALID,1.15313,
2014-12-13, 08:37:04,VALID,918.774,VALID,0,VALID,80.9912,VALID,250.338,VALID,22.5672,VALID,135,VALID,1.77344,
2014-12-13, 08:38:04,VALID,918.755,VALID,0,VALID,81.6849,VALID,225.626,VALID,22.5672,VALID,113,VALID,0.808984,
2014-12-13, 08:39:04,VALID,918.769,VALID,0,VALID,81.7764,VALID,222.403,VALID,22.6062,VALID,131,VALID,1.02539,
2014-12-13, 08:40:04,VALID,918.789,VALID,0,VALID,82.8513,VALID,216.064,VALID,22.6452,VALID,115,VALID,0.791406,
2014-12-13, 08:41:04,VALID,918.795,VALID,0,VALID,83.4917,VALID,217.891,VALID,22.6843,VALID,112,VALID,1.04531,
2014-12-13, 08:42:04,VALID,918.817,VALID,0,VALID,81.9441,VALID,213.915,VALID,22.6647,VALID,126,VALID,0.793359,
2014-12-13, 08:43:04,VALID,918.801,VALID,0,VALID,81.9288,VALID,213.271,VALID,22.6843,VALID,147,VALID,1.02734,
2014-12-13, 08:44:04,VALID,918.795,VALID,0,VALID,83.423,VALID,265.272,VALID,22.7623,VALID,99,VALID,0.725391,
2014-12-13, 08:45:04,VALID,918.823,VALID,0,VALID,79.7333,VALID,239.701,VALID,22.6843,VALID,119,VALID,1.48203,
2014-12-13, 08:46:04,VALID,918.857,VALID,0,VALID,79.4436,VALID,331.456,VALID,22.6647,VALID,120,VALID,0.946875,
2014-12-13, 08:47:04,VALID,918.863,VALID,0,VALID,81.4333,VALID,308.786,VALID,22.6257,VALID,139,VALID,1.40586,